Location: Newark
(49.2191°N, 12.6671°E)
Time: 21:58:21
(UTC+00:00)

Transit 4A - Pass Details

Date: 26 January 2020
Orbit: 872 x 973 km, 66.8° (Epoch: 20 February)

Event Time Altitude Azimuth Distance (km) Brightness Sun altitude
Rises 09:51:24 0° 303° (WNW) 3,497 10.4 19.1°
Reaches altitude 10° 09:55:21 10° 329° (NNW) 2,544 9.7 19.3°
Maximum altitude 09:58:15 14° 359° (N) 2,275 9.5 19.5°
Drops below altitude 10° 10:01:09 10° 29° (NNE) 2,532 9.9 19.7°
Sets 10:05:04 0° 55° (NE) 3,469 10.7 19.9°
